This is the latest recevied weather packets stored in our database for station/object KW4UJ. If no packets are shown the sender has not sent any weather packets the latest 10 day(s).
| Time | Temp. | Humidity | Pressure | Rain* | Wind** | Luminosity | Snow |
|---|---|---|---|---|---|---|---|
| 1787836982 | 25.56° C | 80% | 1015.7 hPa | 0 mm | - | 163 W/m² | - |
| 1787836677 | 25° C | 82% | 1015.5 hPa | 0 mm | - | 158 W/m² | - |
| 1787836376 | 25° C | 82% | 1015.5 hPa | 0 mm | - | 106 W/m² | - |
| 1787836072 | 25° C | 82% | 1015.7 hPa | 0 mm | - | 135 W/m² | - |
| 1787835768 | 25° C | 82% | 1015.7 hPa | 0 mm | - | 172 W/m² | - |
| 1787835467 | 24.44° C | 83% | 1015.4 hPa | 0 mm | - | 121 W/m² | - |
| 1787835163 | 24.44° C | 84% | 1015.6 hPa | 0 mm | - | 102 W/m² | - |
| 1787834862 | 24.44° C | 84% | 1015.6 hPa | 0 mm | - | 112 W/m² | - |
| 1787834557 | 24.44° C | 85% | 1015.6 hPa | 0 mm | - | 109 W/m² | - |
| 1787834252 | 23.89° C | 85% | 1015.7 hPa | 0 mm | - | 119 W/m² | - |
| 1787833948 | 23.89° C | 86% | 1015.5 hPa | 0 mm | - | 125 W/m² | - |
| 1787833643 | 23.89° C | 86% | 1015.6 hPa | 0 mm | - | 96 W/m² | - |
| 1787833339 | 23.89° C | 86% | 1015.8 hPa | 0 mm | - | 94 W/m² | - |
| 1787833034 | 23.33° C | 87% | 1015.6 hPa | 0 mm | - | 108 W/m² | - |
| 1787832729 | 23.33° C | 88% | 1015.6 hPa | 0 mm | - | 99 W/m² | - |
| 1787832429 | 23.33° C | 88% | 1015.6 hPa | 0 mm | - | 73 W/m² | - |
| 1787832128 | 22.78° C | 88% | 1015.5 hPa | 0 mm | - | 59 W/m² | - |
| 1787831826 | 22.78° C | 88% | 1015.7 hPa | 0 mm | - | 54 W/m² | - |
| 1787831522 | 22.78° C | 88% | 1015.6 hPa | 0 mm | - | 41 W/m² | - |
| 1787831220 | 22.78° C | 89% | 1015.6 hPa | 0 mm | - | 28 W/m² | - |
| 1787830916 | 22.78° C | 88% | 1015.7 hPa | 0 mm | - | 25 W/m² | - |
| 1787830615 | 22.78° C | 88% | 1015.6 hPa | 0 mm | - | 27 W/m² | - |
| 1787830315 | 22.78° C | 89% | 1015.5 hPa | 0 mm | - | 29 W/m² | - |
| 1787830010 | 22.78° C | 89% | 1015.4 hPa | 0 mm | - | 26 W/m² | - |
| 1787829710 | 22.78° C | 89% | 1015.8 hPa | 0 mm | - | 18 W/m² | - |
* Rain latest hour (hover to see other rain measurements)
** Current wind speed in m/s (hover to see current wind gust speed)